Location: *
(58.7167°N, 26.1833°E)
Time: 07:28:56
(UTC+00:00)

Meteor 2-5 Rocket - Pass Details

Date: 25 August 2019
Orbit: 833 x 912 km, 81.2° (Epoch: 19 September)

Event Time Altitude Azimuth Distance (km) Brightness Sun altitude
Rises 20:13:14 0° 344° (NNW) 3,398 8.4 -16.2°
Reaches altitude 10° 20:15:47 10° 351° (N) 2,464 7.2 -16.4°
Maximum altitude 20:21:03 41° 62° (ENE) 1,205 4.5 -16.8°
Enters shadow 20:24:09 23° 119° (ESE) 1,754 4.9 -17.0°
